Regional Weather Roundup
Issued by NWS

Home | Current Version | Previous Version | Text Only | Print | Product List | Glossary Off
Versions: 1 2 3 4 5 6 7 8 9 10 11 12 13 14 15 16 17 18 19 20 21 22 23 24 25 26 27 28 29 30 31 32 33 34 35 36 37 38 39 40 41 42 43 44 45 46 47 48 49 50

000
ASUS43 KBIS 210810
RWRND

NORTH DAKOTA REGIONAL WEATHER ROUNDUP
NATIONAL WEATHER SERVICE BISMARCK ND
300 AM CDT TUE APR 21 2015

NOTE: "FAIR" INDICATES FEW OR NO CLOUDS BELOW 12,000 FEET WITH NO
SIGNIFICANT WEATHER AND/OR OBSTRUCTIONS TO VISIBILITY.


NDZ001>003-009>011-017-210900-
NORTHWEST NORTH DAKOTA

CITY           SKY/WX    TMP DP  RH WIND       PRES   REMARKS
WILLISTON      CLOUDY    34  22  61 NE8       29.85S
MINOT          CLOUDY    34  22  61 NW10      29.82R
MINOT AFB      CLOUDY    33  24  71 NW8       29.81R
$$

NDZ018>021-031>035-040>046-210900-
SOUTHWEST NORTH DAKOTA

CITY           SKY/WX    TMP DP  RH WIND       PRES   REMARKS
BISMARCK       CLOUDY    37  23  56 NE15      29.80R
DICKINSON      CLOUDY    33  19  56 NE9       29.77F
GARRISON         N/A     32  29  88 N12       29.82R
HETTINGER ARPT CLOUDY    25  16  68 W6        29.78F WCI  18
$$

NDZ004>008-012>016-024-026-027-054-210900-
NORTHEAST NORTH DAKOTA

CITY           SKY/WX    TMP DP  RH WIND       PRES   REMARKS
GRAND FORKS    CLOUDY    34  27  75 NW21G28   29.63R
GRND FRKS AFB  CLOUDY    33  27  79 N20G26    29.63S
DEVILS LAKE    CLOUDY    34  25  69 N24G31    29.70S
$$

NDZ022-023-025-028>030-036>039-047>053-210900-
SOUTHEAST NORTH DAKOTA

CITY           SKY/WX    TMP DP  RH WIND       PRES   REMARKS
FARGO          CLOUDY    34  26  72 NW16      29.63S
JAMESTOWN      PTCLDY    30  24  78 NW15      29.71S WCI  19
$$




USA.gov is the U.S. government's official web portal to all federal, state and local government web resources and services.